Location: Hartford
(41.7640°N, 72.6860°W)
Time: 22:03:56
(UTC-04:00)

Amateur Radio Satellites - All Passes

Search period start: 20 September 2014 21:33
Search period end: 21 September 2014 21:33
Location: Hartford, 41.7640°N, 72.6860°W

Satellite Date Start Highest point End Downlink Frequencies (MHz)
Time Altitude Azimuth
Oscar 11 20 Sep 21:38:21 21:42:41 71° 75° (ENE) 21:47:03 145.825 FM, Beacon 2401.500 USB
Sapphire 20 Sep 21:39:32 21:44:58 72° 243° (WSW) 21:50:21 437.095 MHz 1200 baud AX-25 AFSK
UKube-1 20 Sep 21:56:28 22:00:40 50° 260° (W) 22:04:54 145.840 MHz, 145.915 MHz
PCSat 20 Sep 22:06:45 22:11:46 39° 249° (WSW) 22:16:45 145.825 MHz
SO-50 20 Sep 22:28:23 22:32:52 87° 303° (WNW) 22:37:29 436.795 FM
HO-68 20 Sep 22:40:00 22:44:46 19° 269° (W) 22:49:35 435.675 MHz FM
KITSAT 1 20 Sep 22:53:38 22:57:56 15° 339° (NNW) 23:02:14 435.175 FM
FUNcube-1 20 Sep 23:08:06 23:12:01 31° 264° (W) 23:16:03 145.950 - 145.970 MHz USB
Oscar 11 20 Sep 23:18:40 23:19:20 10° 271° (W) 23:20:01 145.825 FM, Beacon 2401.500 USB
UOSAT-12 20 Sep 23:59:09 00:03:44 67° 120° (ESE) 00:08:25 437.025 FM, 437.400 FM
SO-50 21 Sep 00:11:36 00:14:09 15° 323° (NW) 00:16:45 436.795 FM
KITSAT 1 21 Sep 00:54:34 00:57:39 12° 11° (N) 01:00:43 435.175 FM
Saudisat 1A 21 Sep 01:08:18 01:12:23 35° 49° (NE) 01:16:26 436.775 MHz
Oscar 16 21 Sep 01:35:27 01:39:41 25° 94° (E) 01:43:52 437.025 USB, Beacon 2401.1428
AO-Echo 21 Sep 01:39:12 01:41:00 12° 90° (E) 01:42:50 ?
UOSAT-12 21 Sep 01:40:59 01:44:21 19° 319° (NW) 01:47:46 437.025 FM, 437.400 FM
PANSAT 21 Sep 01:56:31 01:57:01 10° 173° (S) 01:57:31 not established
Oscar 10/S400 21 Sep 02:02:15 03:10:48 34° 233° (SW) 07:23:06 145.825 - 145.975 CW/USB, Beacon 145.810 USB
JAS-1B 21 Sep 02:11:04 02:15:50 27° 95° (E) 02:20:35 435.800 - 435.900 CW/SSB
Gurwin Techsat 1B 21 Sep 02:19:42 02:21:59 13° 89° (E) 02:24:16 435.225 FM
ITAMSAT 1 21 Sep 02:21:33 02:26:00 28° 95° (E) 02:30:26 435.822 SSB
Uribyol 2 21 Sep 02:25:15 02:29:55 32° 96° (E) 02:34:33 436.500 FM
ISS 21 Sep 02:26:26 02:29:44 69° 142° (SE) 02:33:03 145.800 FM
Oscar 19 21 Sep 02:34:56 02:40:09 87° 104° (ESE) 02:45:17 437.125 CW, 437.150 USB
RS-15 21 Sep 02:41:15 02:49:22 24° 102° (ESE) 02:57:21 29.354 - 29.394 USB, Beacon 29.352 USB
Saudisat 1A 21 Sep 02:48:08 02:51:49 26° 247° (WSW) 02:55:28 436.775 MHz
KITSAT 1 21 Sep 02:49:29 02:56:21 29° 40° (NE) 03:03:10 435.175 FM
TMSAT-1 21 Sep 02:54:29 02:58:24 21° 92° (E) 03:02:17 436.925 FM
AO-27 21 Sep 02:56:27 03:01:38 60° 101° (ESE) 03:06:47 436.795 MHz FM
OPAL 21 Sep 03:03:52 03:06:05 13° 56° (NE) 03:08:19 ?
Oscar 16 21 Sep 03:14:19 03:19:09 40° 291° (WNW) 03:23:55 437.025 USB, Beacon 2401.1428
AO-Echo 21 Sep 03:15:24 03:20:16 76° 285° (WNW) 03:25:15 ?
AO-7 21 Sep 03:32:51 03:36:55 14° 88° (E) 03:40:58 29.400 - 29.500 MHz
PANSAT 21 Sep 03:35:41 03:36:21 10° 186° (S) 03:37:01 not established
Gurwin Techsat 1B 21 Sep 03:57:13 04:02:33 79° 285° (WNW) 04:07:51 435.225 FM
ITAMSAT 1 21 Sep 04:00:47 04:05:32 37° 292° (WNW) 04:10:17 435.822 SSB
JAS-1B 21 Sep 04:01:26 04:06:42 39° 293° (WNW) 04:11:57 435.800 - 435.900 CW/SSB
ISS 21 Sep 04:03:57 04:06:42 24° 340° (NNW) 04:09:29 145.800 FM
Uribyol 2 21 Sep 04:04:44 04:09:20 32° 293° (WNW) 04:13:55 436.500 FM
Oscar 19 21 Sep 04:16:31 04:18:43 13° 302° (WNW) 04:20:55 437.125 CW, 437.150 USB
Uosat F 21 Sep 04:27:22 04:31:30 25° 95° (E) 04:35:37 435.120 FM
TMSAT-1 21 Sep 04:33:28 04:38:35 51° 289° (WNW) 04:43:41 436.925 FM
AO-27 21 Sep 04:37:09 04:40:40 19° 298° (WNW) 04:44:10 436.795 MHz FM
OPAL 21 Sep 04:38:59 04:44:10 87° 72° (ENE) 04:49:26 ?
KITSAT 1 21 Sep 04:44:30 04:52:36 79° 242° (WSW) 05:00:38 435.175 FM
RS-15 21 Sep 04:49:13 05:00:18 86° 303° (WNW) 05:11:18 29.354 - 29.394 USB, Beacon 29.352 USB
SO-50 21 Sep 05:20:18 05:23:16 16° 38° (NE) 05:26:15 436.795 FM
AO-7 21 Sep 05:22:37 05:30:57 77° 107° (ESE) 05:39:14 29.400 - 29.500 MHz
STRAND 1 21 Sep 05:25:05 05:27:58 15° 60° (ENE) 05:30:51 ?
Gurwin Techsat 1B 21 Sep 05:40:07 05:41:38 11° 303° (WNW) 05:43:08 435.225 FM
ISS 21 Sep 05:42:17 05:44:18 15° 1° (N) 05:46:19 145.800 FM
Uosat F 21 Sep 06:05:44 06:10:22 38° 291° (WNW) 06:14:59 435.120 FM
Hamsat 21 Sep 06:11:26 06:15:14 31° 96° (E) 06:18:59 145.90 MHz
OPAL 21 Sep 06:22:10 06:23:42 11° 270° (W) 06:25:14 ?
JAS-2 21 Sep 06:32:48 06:38:53 64° 102° (ESE) 06:45:44 435.800 - 435.900 CW/SSB, 435.910 FM
KITSAT 1 21 Sep 06:42:34 06:46:40 15° 261° (W) 06:50:47 435.175 FM
UOSAT-12 21 Sep 06:50:17 06:52:10 12° 34° (NNE) 06:54:03 437.025 FM, 437.400 FM
SO-50 21 Sep 06:59:40 07:04:30 89° 58° (ENE) 07:09:23 436.795 FM
STRAND 1 21 Sep 07:01:30 07:06:33 71° 257° (WSW) 07:11:40 ?
RS-15 21 Sep 07:05:03 07:14:24 31° 330° (NNW) 07:23:50 29.354 - 29.394 USB, Beacon 29.352 USB
AO-7 21 Sep 07:16:30 07:22:56 26° 306° (NW) 07:29:22 29.400 - 29.500 MHz
ISS 21 Sep 07:19:01 07:21:52 25° 21° (NNE) 07:24:42 145.800 FM
Hamsat 21 Sep 07:47:43 07:51:02 22° 293° (WNW) 07:54:18 145.90 MHz
MaSat-1 21 Sep 08:04:35 08:09:33 67° 113° (ESE) 08:14:26 437.345 MHz
SO-67 21 Sep 08:09:15 08:12:43 73° 284° (WNW) 08:16:08 435.3500 MHz FM
JAS-2 21 Sep 08:19:01 08:23:35 23° 296° (WNW) 08:28:33 435.800 - 435.900 CW/SSB, 435.910 FM
HO-68 21 Sep 08:19:24 08:22:36 13° 88° (E) 08:25:46 435.675 MHz FM
UOSAT-12 21 Sep 08:28:36 08:33:18 62° 54° (NE) 08:37:55 437.025 FM, 437.400 FM
SO-50 21 Sep 08:43:05 08:44:22 11° 253° (WSW) 08:45:39 436.795 FM
ISS 21 Sep 08:55:30 08:58:46 58° 219° (SW) 09:02:02 145.800 FM
RS-15 21 Sep 09:23:50 09:31:40 21° 5° (N) 09:39:36 29.354 - 29.394 USB, Beacon 29.352 USB
Oscar 11 21 Sep 09:27:40 09:29:35 13° 90° (E) 09:31:30 145.825 FM, Beacon 2401.500 USB
MaSat-1 21 Sep 09:43:13 09:46:42 19° 310° (NW) 09:50:07 437.345 MHz
UKube-1 21 Sep 09:44:43 09:48:23 26° 96° (E) 09:52:02 145.840 MHz, 145.915 MHz
HO-68 21 Sep 10:04:06 10:11:20 80° 105° (ESE) 10:18:31 435.675 MHz FM
UOSAT-12 21 Sep 10:10:06 10:12:56 16° 251° (WSW) 10:15:44 437.025 FM, 437.400 FM
Sapphire 21 Sep 10:41:24 10:44:02 14° 103° (ESE) 10:46:39 437.095 MHz 1200 baud AX-25 AFSK
FUNcube-1 21 Sep 10:56:23 11:00:54 50° 99° (E) 11:05:20 145.950 - 145.970 MHz USB
Oscar 11 21 Sep 11:01:52 11:06:08 57° 286° (WNW) 11:10:22 145.825 FM, Beacon 2401.500 USB
PCSat 21 Sep 11:06:09 11:10:32 26° 108° (ESE) 11:14:56 145.825 MHz
UKube-1 21 Sep 11:20:47 11:24:33 29° 292° (WNW) 11:28:17 145.840 MHz, 145.915 MHz
RS-15 21 Sep 11:38:02 11:48:16 40° 39° (NE) 11:58:47 29.354 - 29.394 USB, Beacon 29.352 USB
HO-68 21 Sep 11:53:07 11:58:15 22° 304° (NW) 12:03:22 435.675 MHz FM
Oscar 19 21 Sep 12:15:07 12:18:26 17° 61° (ENE) 12:21:45 437.125 CW, 437.150 USB
Sapphire 21 Sep 12:21:18 12:26:42 80° 300° (WNW) 12:32:10 437.095 MHz 1200 baud AX-25 AFSK
FUNcube-1 21 Sep 12:33:49 12:36:52 18° 296° (WNW) 12:39:53 145.950 - 145.970 MHz USB
AO-27 21 Sep 12:39:08 12:41:21 13° 58° (ENE) 12:43:33 436.795 MHz FM
PCSat 21 Sep 12:48:28 12:53:40 46° 306° (NW) 12:58:54 145.825 MHz
AO-Echo 21 Sep 12:52:24 12:55:19 17° 63° (ENE) 12:58:13 ?
Oscar 16 21 Sep 12:52:29 12:57:15 38° 69° (ENE) 13:02:01 437.025 USB, Beacon 2401.1428
JAS-1B 21 Sep 12:55:19 13:02:23 33° 65° (ENE) 13:08:29 435.800 - 435.900 CW/SSB
ITAMSAT 1 21 Sep 13:39:45 13:44:37 43° 70° (ENE) 13:49:30 435.822 SSB
Gurwin Techsat 1B 21 Sep 13:40:23 13:44:24 22° 64° (ENE) 13:48:26 435.225 FM
Uribyol 2 21 Sep 13:43:19 13:48:17 50° 71° (ENE) 13:53:18 436.500 FM
RS-15 21 Sep 13:50:26 14:01:28 71° 243° (WSW) 14:12:57 29.354 - 29.394 USB, Beacon 29.352 USB
Oscar 19 21 Sep 13:52:05 13:57:14 64° 258° (WSW) 14:02:25 437.125 CW, 437.150 USB
Sapphire 21 Sep 14:07:51 14:11:01 16° 320° (NW) 14:14:12 437.095 MHz 1200 baud AX-25 AFSK
AO-27 21 Sep 14:14:56 14:20:06 88° 256° (WSW) 14:25:19 436.795 MHz FM
TMSAT-1 21 Sep 14:15:19 14:20:00 33° 67° (ENE) 14:24:42 436.925 FM
AO-Echo 21 Sep 14:29:01 14:33:40 55° 260° (W) 14:38:17 ?
AO-7 21 Sep 14:31:44 14:38:02 25° 53° (NE) 14:44:19 29.400 - 29.500 MHz
Oscar 16 21 Sep 14:32:19 14:36:40 27° 265° (W) 14:41:03 437.025 USB, Beacon 2401.1428
JAS-1B 21 Sep 14:44:25 14:52:45 54° 259° (W) 14:59:47 435.800 - 435.900 CW/SSB
Gurwin Techsat 1B 21 Sep 15:18:54 15:24:01 49° 261° (W) 15:29:11 435.225 FM
ITAMSAT 1 21 Sep 15:20:14 15:24:17 23° 266° (W) 15:28:22 435.822 SSB
Uribyol 2 21 Sep 15:24:17 15:28:02 20° 267° (W) 15:31:49 436.500 FM
Uosat F 21 Sep 15:40:50 15:45:22 36° 68° (ENE) 15:49:55 435.120 FM
TMSAT-1 21 Sep 15:55:13 15:59:53 32° 264° (W) 16:04:35 436.925 FM
RS-15 21 Sep 16:06:15 16:11:46 15° 263° (W) 16:17:23 29.354 - 29.394 USB, Beacon 29.352 USB
AO-7 21 Sep 16:21:37 16:29:56 81° 253° (WSW) 16:38:17 29.400 - 29.500 MHz
MaSat-1 21 Sep 16:22:26 16:24:19 13° 46° (NE) 16:26:05 437.345 MHz
JAS-2 21 Sep 16:47:41 16:51:44 23° 64° (ENE) 16:55:47 435.800 - 435.900 CW/SSB, 435.910 FM
OPAL 21 Sep 16:49:35 16:53:33 22° 95° (E) 16:57:28 ?
Saudisat 1A 21 Sep 16:53:52 16:58:15 75° 121° (ESE) 17:02:40 436.775 MHz
Hamsat 21 Sep 17:05:11 17:08:44 25° 68° (ENE) 17:12:17 145.90 MHz
Uosat F 21 Sep 17:20:03 17:24:12 26° 265° (W) 17:28:23 435.120 FM
KITSAT 1 21 Sep 17:22:54 17:26:21 13° 99° (E) 17:29:49 435.175 FM
MaSat-1 21 Sep 17:57:52 18:01:29 49° 249° (WSW) 18:04:35 437.345 MHz
AO-7 21 Sep 18:19:24 18:23:54 15° 271° (W) 18:28:25 29.400 - 29.500 MHz
OPAL 21 Sep 18:27:43 18:32:39 46° 292° (WNW) 18:37:29 ?
JAS-2 21 Sep 18:31:43 18:36:38 41° 262° (W) 18:41:32 435.800 - 435.900 CW/SSB, 435.910 FM
Saudisat 1A 21 Sep 18:35:33 18:38:21 16° 320° (NW) 18:41:09 436.775 MHz
Hamsat 21 Sep 18:40:43 18:44:33 30° 264° (W) 18:48:24 145.90 MHz
SO-67 21 Sep 18:42:23 18:45:32 34° 73° (ENE) 18:48:43 435.3500 MHz FM
HO-68 21 Sep 18:50:31 18:53:14 13° 49° (NE) 18:55:56 435.675 MHz FM
STRAND 1 21 Sep 19:11:58 19:16:46 38° 98° (E) 19:21:31 ?
KITSAT 1 21 Sep 19:12:18 19:20:20 73° 117° (ESE) 19:28:24 435.175 FM
Sapphire 21 Sep 19:26:55 19:30:17 16° 40° (NE) 19:33:38 437.095 MHz 1200 baud AX-25 AFSK
PCSat 21 Sep 19:53:05 19:57:33 25° 47° (NE) 20:02:00 145.825 MHz
SO-67 21 Sep 20:17:04 20:18:42 13° 268° (W) 20:20:21 435.3500 MHz FM
Oscar 11 21 Sep 20:24:00 20:25:31 12° 61° (ENE) 20:27:03 145.825 FM, Beacon 2401.500 USB
HO-68 21 Sep 20:32:32 20:39:31 62° 69° (ENE) 20:46:33 435.675 MHz FM
UKube-1 21 Sep 20:40:45 20:44:15 24° 67° (ENE) 20:47:45 145.840 MHz, 145.915 MHz
STRAND 1 21 Sep 20:51:30 20:55:46 27° 294° (WNW) 21:00:01 ?
Sapphire 21 Sep 21:09:04 21:14:32 85° 61° (ENE) 21:19:58 437.095 MHz 1200 baud AX-25 AFSK
KITSAT 1 21 Sep 21:09:27 21:16:27 31° 319° (NW) 21:23:29 435.175 FM
SO-50 21 Sep 21:15:39 21:19:22 26° 113° (ESE) 21:23:10 436.795 FM
